This demonstration page uses our WeatherBlox Daily Observations layout. Learn more.

Left ArrowRight Arrow

44.8408, -93.29828

Hourly Observations for March 20, 2016

Temp ( °F °C ) Dew Point ( °F °C ) Humidity (%) Winds ( mph kmh ) Pressure ( in mb ) Visibility ( mi km ) Precip ( " mm )
12:53 am 00:53 Mostly Clear 31 -0.6 25 -3.9 79 79 WNW 3 6 30.33 1027 10 16 0.00 0.00
1:53 am 01:53 Mostly Cloudy 32 0 25 -3.9 75 75 NNW 6 9 30.34 1027 10 16 0.00 0.00
2:53 am 02:53 Mostly Cloudy 33 0.6 24 -4.4 70 70 Calm 30.33 1027 10 16 0.00 0.00
3:53 am 03:53 Clear 30 -1 25 -4 80 80 Calm 30.36 1028 10 16 0.00 0.00
4:53 am 04:53 Mostly Clear 29 -1.7 23 -5 78 78 Calm 30.32 1027 10 16 0.00 0.00
5:53 am 05:53 Mostly Clear 28 -2.2 23 -5 81 81 Calm 30.33 1027 10 16 0.00 0.00
6:53 am 06:53 Partly Cloudy 28 -2.2 24 -4.4 85 85 NW 7 11 30.35 1028 10 16 0.00 0.00
7:53 am 07:53 Partly Cloudy 28 -2.2 25 -3.9 88 88 N 3 6 30.36 1028 10 16 0.00 0.00
9:53 am 09:53 Partly Cloudy 34 1.1 23 -5 64 64 NNW 8 13 30.36 1028 10 16 0.00 0.00
11:53 am 11:53 Mostly Cloudy 40 4.4 18 -7.8 41 41 NW 12 19 30.34 1027 10 16 0.00 0.00
1:53 pm 13:53 Mostly Cloudy 42 5.6 19 -7.2 40 40 NNW 14 22 30.31 1026 10 16 0.00 0.00
3:53 pm 15:53 Sunny 43 6.1 20 -6.7 40 40 NW 12 19 30.27 1025 10 16 0.00 0.00
4:53 pm 16:53 Sunny 43 6.1 19 -7.2 38 38 NNW 14 22 30.25 1024 10 16 0.00 0.00
5:53 pm 17:53 Sunny 43 6.1 20 -6.7 40 40 WNW 14 22 30.24 1024 10 16 0.00 0.00
6:53 pm 18:53 Sunny 40 4.4 20 -6.7 45 45 WNW 12 19 30.25 1024 10 16 0.00 0.00
7:53 pm 19:53 Partly Cloudy 38 3.3 21 -6.1 51 51 W 10 17 30.24 1024 10 16 0.00 0.00
8:53 pm 20:53 Partly Cloudy 37 2.8 21 -6.1 52 52 W 8 13 30.24 1024 10 16 0.00 0.00
9:53 pm 21:53 Mostly Cloudy 35 1.7 22 -5.6 59 59 W 9 15 30.23 1024 10 16 0.00 0.00
10:53 pm 22:53 Mostly Cloudy 33 0.6 22 -5.6 64 64 WNW 6 9 30.24 1024 10 16 0.00 0.00
11:53 pm 23:53 Mostly Cloudy 32 0 21 -6.1 64 64 W 5 7 30.23 1024 10 16 0.00 0.00

Powered by AerisWeather